INTELSAT 35E (IS-35E) (42818 NORAD) Tracking and Keplerian Element Data

This shows tracking and keplerian element data for the satellite.

Feedback or suggestion? Click here.




ElementValue
Catalog42818
NameINTELSAT 35E (IS-35E)
Epoch Orbit538
Epoch Day348.86390139
Epoch Year2018
RAAN248.4636
Inclination0.0249
Eccentricity0.0001183
Argument of Perigee346.3038
Mean Anonmoly125.2353
Mean Motion1.00271467
Decay Rate-2.26E-06
L11 42818U 17041A 18348.86390139 -.00000226 00000-0 00000-0 0 9990
L22 42818 0.0249 248.4636 0001183 346.3038 125.2353 1.00271467 5388

Live tracking and technical data element details for INTELSAT 35E (IS-35E) (NORAD 42818). INTELSAT 35E (IS-35E) can be tracked NOW for your location showing map with azimuth and elevation plus other details from your city location.

Track the satellite on the map from your city or location and see movement details for azimuth, elevation, latitude, longitude, range, height, and movement on the map or in text.







IsCatalogInMostPopularTable: catalog: 42818, numindb: 130
Update: records affected: 1



GetName: 42818 INTELSAT 35E (IS-35E)

Hit Count: updated at: Sun, 16 Dec 2018 09:57:11 GMT